This is the latest recevied weather packets stored in our database for station/object HOTSPR-3. If no packets are shown the sender has not sent any weather packets the latest 10 day(s).
| Time | Temp. | Humidity | Pressure | Rain* | Wind** | Luminosity | Snow |
|---|---|---|---|---|---|---|---|
| 1777732885 | 18.33° C | 63% | 1017.5 hPa | 0 mm | - | - | - |
| 1777732285 | 17.78° C | 65% | 1017.4 hPa | 0 mm | - | - | - |
| 1777731985 | 17.78° C | 65% | 1017.4 hPa | 0 mm | - | - | - |
| 1777731684 | 17.78° C | 66% | 1017.4 hPa | 0 mm | - | - | - |
| 1777731384 | 17.22° C | 67% | 1017.3 hPa | 0 mm | - | - | - |
| 1777730784 | 17.22° C | 68% | 1017.3 hPa | 0 mm | - | - | - |
| 1777729884 | 16.67° C | 70% | 1017.1 hPa | 0 mm | - | - | - |
| 1777728082 | 15° C | 72% | 1016.8 hPa | 0 mm | - | - | - |
| 1777727482 | 15° C | 72% | 1016.6 hPa | 0 mm | - | - | - |
| 1777726581 | 14.44° C | 76% | 1016.4 hPa | 0 mm | - | - | - |
| 1777726281 | 13.89° C | 77% | 1016.5 hPa | 0 mm | - | - | - |
| 1777725981 | 13.89° C | 75% | 1016.5 hPa | 0 mm | - | - | - |
| 1777725681 | 13.33° C | 73% | 1016.4 hPa | 0 mm | - | - | - |
| 1777725381 | 13.33° C | 73% | 1016.2 hPa | 0 mm | - | - | - |
| 1777725080 | 13.33° C | 72% | 1016.2 hPa | 0 mm | - | - | - |
| 1777724480 | 13.33° C | 73% | 1016 hPa | 0 mm | - | - | - |
| 1777723880 | 13.33° C | 74% | 1015.8 hPa | 0 mm | - | - | - |
| 1777722379 | 13.33° C | 75% | 1015.3 hPa | 0 mm | - | - | - |
| 1777721779 | 13.33° C | 76% | 1015.4 hPa | 0 mm | - | - | - |
| 1777720578 | 13.33° C | 75% | 1015.4 hPa | 0 mm | - | - | - |
| 1777719977 | 13.33° C | 72% | 1015.3 hPa | 0 mm | - | - | - |
| 1777718476 | 13.33° C | 65% | 1015.1 hPa | 0 mm | - | - | - |
| 1777717276 | 13.89° C | 61% | 1014.9 hPa | 0 mm | - | - | - |
| 1777715174 | 13.89° C | 54% | 1014.8 hPa | 0 mm | - | - | - |
| 1777714574 | 14.44° C | 51% | 1014.7 hPa | 0 mm | - | - | - |
* Rain since midnight (hover to see other rain measurements)
** Current wind speed in m/s (hover to see current wind gust speed)